Location: *
(45.9500°N, 9.0833°E)
Time: 10:36:51
(UTC+00:00)

A-11 Canister half - Visible Passes

Search period start: 15 June 2021 00:00
Search period end: 25 June 2021 00:00
Orbit: 1513 x 1686 km, 47.2° (Epoch: 14 June)

Date Brightness Start Highest point End Pass type
(mag) Time Alt. Az. Time Alt. Az. Time Alt. Az.
16 Jun 10.8 02:35:44 10° SSE 02:41:58 19° SE 02:48:05 10° E visible
17 Jun 10.8 02:13:19 10° SSE 02:19:09 17° SE 02:24:52 10° E visible
18 Jun 10.8 01:50:59 10° SSE 01:56:20 16° SE 02:01:36 10° E visible
19 Jun 10.8 01:28:44 10° SSE 01:33:31 15° ESE 01:38:15 10° E visible
20 Jun 10.8 01:06:35 10° SSE 01:10:43 13° ESE 01:14:48 10° E visible
21 Jun 10.8 00:44:39 10° SE 00:47:55 12° ESE 00:51:09 10° ESE visible
21 Jun 9.8 02:41:39 10° SSW 02:50:55 43° SE 02:59:56 10° ENE visible
22 Jun 10.9 00:23:08 10° SE 00:25:07 11° ESE 00:27:04 10° ESE visible
22 Jun 9.8 02:18:57 10° SSW 02:28:02 41° SE 02:36:59 10° ENE visible
23 Jun 9.8 01:57:08 13° SSW 02:05:09 39° SE 02:14:00 10° ENE visible
24 Jun 9.9 01:35:16 16° SSW 01:42:17 37° SE 01:51:01 10° ENE visible
